Theta_e
290 290 289 289 289 289 288 288 287 286 286 286 287 287 287 287 286 286 289 290 290 291 291 291 291 291 290 291 292 293 293 293 293 292 292 293 293 293 292 291 290 288 287 286 287 289 290 289 286 286 289 290
290 290 290 289 290 289 289 288 288 287 287 286 286 286 286 286 285 286 288 289 289 290 290 290 289 289 289 291 291 292 292 292 292 291 291 292 292 291 291 289 288 287 286 286 285 285 286 286 284 284 286 287
290 290 290 289 290 290 289 289 288 287 287 286 286 285 285 285 285 286 287 288 288 288 289 289 288 287 289 290 290 290 291 291 290 290 290 290 290 290 289 288 286 285 285 285 285 283 283 284 283 284 285 286
290 290 289 289 290 289 289 288 288 287 287 286 286 285 285 285 285 285 286 286 286 286 287 286 286 287 288 289 289 290 291 290 289 289 289 289 289 289 288 287 285 284 285 284 283 283 283 283 283 283 284 284
290 290 290 289 289 288 288 288 287 287 287 286 286 286 285 284 284 285 285 284 285 285 285 284 285 287 288 288 289 289 290 289 288 289 289 289 289 288 288 287 285 284 284 284 284 283 282 282 283 283 283 283
290 290 290 289 289 288 288 288 287 287 287 286 286 285 285 284 284 284 284 284 285 285 285 285 286 287 287 288 289 289 289 288 288 288 288 288 288 288 287 286 285 284 284 283 284 283 282 282 282 282 283 283
290 290 290 289 288 288 288 288 287 287 287 286 286 285 285 284 284 284 284 284 285 285 285 285 286 286 287 288 288 288 288 287 287 287 288 287 287 287 286 285 284 283 283 283 283 283 282 282 282 282 282 282
290 290 290 289 289 288 288 288 287 287 287 286 286 285 285 284 284 284 284 284 284 284 285 285 285 285 286 286 286 286 286 285 285 286 286 285 285 285 284 284 283 283 283 283 283 283 282 282 282 282 281 282
291 290 290 290 289 288 288 288 287 287 287 286 286 285 285 284 284 284 284 283 283 284 284 284 284 284 285 285 285 285 285 285 285 285 285 284 284 284 284 284 283 283 283 283 283 283 282 282 282 282 282 281
291 291 290 290 289 289 288 288 287 287 287 286 286 285 285 284 284 284 283 283 283 283 284 284 284 284 285 285 285 285 284 284 284 284 284 284 284 284 284 283 283 283 283 283 283 283 282 282 282 282 282 282
291 291 290 290 289 289 288 288 288 287 287 286 286 285 285 284 284 283 283 283 283 283 283 283 283 284 284 284 284 284 284 284 284 284 284 284 284 283 283 283 283 283 283 283 283 283 282 282 282 282 282 282
291 291 290 290 289 289 289 288 288 287 287 286 286 285 285 284 284 283 283 283 282 282 283 283 283 283 283 284 284 284 284 284 283 283 283 283 283 283 283 283 283 283 283 283 282 282 282 282 282 282 282 281
292 291 291 290 289 289 289 288 288 287 287 287 286 285 285 284 284 283 283 282 282 282 282 283 283 283 283 283 284 284 284 283 283 283 283 283 283 283 282 282 282 282 282 282 282 282 282 282 282 282 282 282
292 291 291 290 290 289 289 288 288 287 287 287 286 285 285 284 284 283 283 282 282 282 282 282 282 282 282 283 283 284 283 283 283 283 282 282 282 282 282 282 282 282 282 282 282 282 282 282 282 282 282 282
292 291 291 290 290 289 289 288 288 287 287 286 286 285 285 284 284 283 283 282 282 282 281 281 282 282 282 282 283 283 283 283 282 282 282 282 281 281 281 282 282 282 282 282 282 282 282 282 282 282 282 281
292 291 291 290 290 289 289 288 288 287 287 286 286 285 285 285 284 283 283 282 282 281 281 281 282 282 282 282 282 282 282 282 282 282 282 281 281 281 281 281 282 282 282 282 282 282 282 282 282 282 281 281
292 291 291 290 290 289 289 288 288 287 287 286 286 285 285 284 284 283 282 282 281 281 281 281 281 281 281 281 282 282 282 282 281 281 281 281 281 281 281 281 281 281 282 282 282 282 282 282 282 281 281 281
292 291 291 290 290 289 289 288 288 287 287 286 286 285 285 284 284 283 282 282 281 281 281 280 280 281 281 281 281 281 281 281 281 281 281 281 281 281 281 281 281 281 281 281 281 282 281 281 281 281 281 281
292 291 291 290 290 289 289 288 287 287 287 286 285 285 284 284 284 283 283 282 281 281 280 280 280 281 281 281 281 281 281 281 281 280 280 280 280 280 280 280 281 281 281 281 281 281 281 281 281 281 281 280
292 292 291 290 290 289 288 288 287 287 286 286 285 285 284 284 283 283 282 282 281 281 280 280 280 280 280 280 280 281 280 280 280 280 280 280 280 280 280 280 280 280 280 280 280 280 280 281 281 281 280 280
292 292 291 290 289 289 288 288 287 287 286 286 285 284 284 283 283 283 282 282 281 281 280 280 280 280 280 280 280 280 280 280 280 279 279 279 279 280 280 280 280 280 280 280 280 280 280 280 280 280 280 280
293 292 291 290 289 289 288 287 287 286 286 285 285 284 284 283 283 282 282 281 281 280 280 280 280 280 279 279 279 279 279 279 279 279 279 279 279 279 279 279 279 279 279 279 279 279 280 280 280 280 280 280
292 292 291 290 289 289 288 287 286 286 286 285 285 284 284 283 283 282 282 281 281 280 280 280 280 279 279 279 279 279 279 279 279 278 278 279 279 278 279 279 279 279 279 279 279 279 280 280 280 280 280 281
292 291 291 290 289 288 288 287 286 286 285 285 284 284 283 283 282 282 281 281 281 280 280 279 279 279 279 279 279 278 278 278 278 278 278 278 278 278 279 279 279 278 278 279 279 279 280 280 280 280 281 281
291 291 290 290 289 288 288 287 286 286 285 284 284 284 283 283 282 282 281 281 280 280 279 279 279 279 278 278 278 278 278 278 278 278 278 278 278 278 278 278 278 278 278 279 279 280 280 280 280 281 281 282
291 290 290 289 289 288 288 287 287 286 285 285 284 284 283 283 282 282 281 281 280 280 279 279 279 279 278 278 278 278 278 278 278 278 278 278 278 278 278 278 278 278 278 279 279 279 279 279 280 281 282 283
291 290 290 289 289 288 288 287 287 286 286 285 284 283 283 282 282 281 281 281 280 280 279 279 279 278 278 278 278 278 278 278 278 278 278 278 278 278 277 277 278 278 278 279 279 279 279 280 280 281 282 282
290 290 289 289 288 288 287 287 287 286 286 285 284 283 283 282 282 281 281 281 280 280 279 279 279 278 278 278 278 277 277 278 278 277 277 277 277 277 277 277 277 278 279 279 279 279 279 280 280 281 281 280
290 289 289 288 288 287 287 286 286 285 285 285 284 283 283 282 282 281 281 281 280 280 279 279 279 278 278 278 277 277 277 277 277 277 277 277 277 277 277 277 277 278 279 279 279 278 279 280 281 281 280 279
289 289 288 288 287 287 286 286 286 285 285 285 285 284 283 283 282 281 281 280 280 279 279 279 278 278 278 277 277 277 277 277 277 277 277 277 277 277 277 277 277 278 278 278 279 278 278 279 280 280 279 279
289 289 288 288 287 287 286 286 286 286 285 285 285 284 284 283 282 281 281 280 280 279 279 279 278 278 278 277 277 277 277 277 277 277 277 277 277 277 277 277 277 277 277 278 278 278 278 278 278 278 278 278
Wind_Speed
11 13 14 16 17 18 19 19 19 20 19 16 15 15 15 17 19 17 14 13 11 12 13 13 14 16 16 16 16 16 15 15 15 15 15 15 15 16 16 17 17 18 19 20 20 19 19 19 22 23 21 22
10 13 14 16 16 18 19 19 19 20 20 20 20 19 17 19 20 17 14 12 10 12 13 12 14 16 16 16 16 16 15 15 15 15 15 15 15 16 16 18 18 19 18 17 19 21 20 21 23 23 22 24
8 12 14 15 16 17 18 19 19 19 20 20 21 20 19 20 19 16 12 11 11 13 12 13 15 15 15 15 15 15 15 14 14 15 14 14 15 16 16 17 18 18 17 17 18 20 21 22 23 23 22 23
9 12 14 14 15 17 17 18 18 18 18 17 18 18 18 20 19 14 11 12 14 13 12 14 15 15 15 14 14 14 14 13 13 14 12 13 14 14 16 16 16 16 16 18 19 19 20 21 22 23 23 22
10 13 14 12 12 14 15 15 16 17 16 15 16 16 18 20 17 12 13 16 14 13 14 17 16 15 15 14 14 14 13 12 13 13 11 12 13 13 15 13 14 15 16 19 19 19 20 20 21 22 24 23
11 13 12 10 9 11 12 12 13 14 14 14 15 15 17 18 15 13 16 16 13 14 16 17 15 14 15 14 14 14 13 12 13 13 10 12 13 12 13 11 14 15 16 18 18 19 21 21 21 21 23 24
12 11 9 8 9 10 11 10 11 12 12 12 13 14 15 16 15 16 17 14 12 14 14 14 14 14 14 13 14 13 11 12 13 11 10 11 12 12 11 11 14 15 16 17 16 19 21 20 21 21 22 23
13 11 9 10 10 10 10 9 10 11 11 12 12 13 14 15 16 16 14 13 12 12 13 14 14 13 12 12 12 11 12 13 11 10 11 12 11 12 11 11 13 15 16 16 16 18 20 21 21 21 22 22
15 13 12 13 12 12 11 10 11 11 11 11 11 11 14 15 14 14 13 12 12 12 13 14 13 12 11 12 12 12 13 13 11 11 13 13 12 12 12 13 13 14 15 17 17 17 19 21 22 21 22 22
15 14 16 16 14 13 12 12 12 12 12 12 11 13 15 14 12 13 13 12 12 12 12 14 13 11 11 12 13 14 13 12 12 13 13 13 13 12 13 14 14 14 15 16 17 18 19 21 22 23 23 23
17 18 19 17 15 15 16 15 15 14 13 12 12 15 15 11 12 13 12 13 13 12 12 13 12 12 12 12 13 13 13 13 13 13 13 13 13 13 14 14 14 15 15 15 16 18 18 19 21 23 24 24
21 21 20 18 17 18 19 17 17 15 14 13 15 15 13 12 13 12 12 14 13 12 12 12 13 13 13 12 13 13 13 14 14 13 13 13 14 14 14 15 15 15 16 16 17 18 18 19 21 22 23 24
23 22 20 19 20 20 19 18 18 17 16 16 17 15 13 14 14 13 14 15 13 12 12 12 13 14 13 13 12 13 13 13 14 13 14 14 15 15 15 16 16 16 17 18 17 18 18 19 20 21 23 23
23 23 22 21 22 22 20 20 20 18 18 18 17 15 15 15 15 15 16 15 13 13 13 13 14 14 13 13 12 12 13 13 14 14 14 14 15 17 18 18 18 18 18 18 18 18 19 19 19 20 22 23
24 24 23 22 22 23 22 22 21 20 20 20 18 17 16 17 17 18 16 14 14 14 14 14 14 13 12 13 14 13 14 14 14 15 15 16 18 18 18 17 18 18 18 19 19 19 19 19 19 20 21 23
24 25 24 22 22 23 23 22 22 22 22 21 19 19 18 19 19 18 16 15 14 14 13 13 14 15 14 15 15 14 15 14 15 16 18 18 17 15 15 17 18 19 19 20 19 19 19 20 20 21 21 22
25 25 24 23 23 24 23 23 23 23 23 22 21 20 20 20 20 18 17 16 15 14 13 14 15 16 16 15 15 15 14 15 16 17 17 16 15 15 16 18 18 18 18 20 20 20 20 20 21 22 21 22
24 25 25 24 24 24 24 24 25 24 24 23 22 21 21 21 21 20 18 17 16 15 15 15 15 16 16 15 15 15 15 15 15 15 15 15 16 17 16 17 18 18 19 21 21 20 20 21 22 22 22 25
24 25 24 24 25 25 25 25 25 25 25 24 23 22 22 22 22 21 20 19 17 16 15 15 15 16 16 15 14 15 15 15 15 15 16 16 16 17 16 17 18 18 20 21 21 21 21 21 21 22 25 28
24 25 25 24 25 25 25 25 26 26 25 24 24 23 23 23 22 22 21 20 19 17 16 15 15 16 15 14 15 16 16 16 16 16 16 16 16 17 17 17 18 18 19 21 22 21 21 21 22 24 27 28
23 25 25 25 25 25 25 25 26 26 25 25 24 24 24 24 23 23 23 22 20 19 17 16 16 17 16 16 17 17 17 18 17 16 16 17 16 16 17 17 18 19 19 20 21 21 22 22 23 26 28 27
22 23 24 24 24 24 24 25 26 26 26 26 26 26 26 25 25 24 24 23 21 20 18 18 17 17 17 17 18 18 18 19 18 17 16 17 17 16 16 17 18 18 19 20 21 22 23 22 24 26 27 25
21 22 22 23 23 23 24 25 26 27 27 27 27 27 26 26 26 25 24 23 22 20 19 19 19 18 18 19 19 19 19 19 18 17 16 17 17 17 17 18 18 19 19 20 21 22 22 23 24 25 25 24
19 20 21 22 22 23 25 26 27 27 28 29 28 28 27 27 27 26 25 25 23 21 21 20 20 19 19 19 20 20 20 20 18 17 16 16 16 16 17 18 18 18 18 20 21 22 22 22 22 24 24 24
18 18 19 21 22 23 24 25 25 27 27 28 29 28 28 28 27 27 27 26 24 23 22 22 21 20 20 20 21 22 21 20 19 17 17 17 16 16 17 18 18 16 16 18 16 16 19 20 21 20 21 22
17 18 19 20 21 22 22 22 23 24 26 27 28 27 28 28 28 28 28 27 26 24 24 23 23 22 22 22 23 23 22 20 19 18 17 17 17 17 17 18 18 14 14 13 11 10 11 14 16 14 14 14
17 18 18 19 20 21 22 21 21 22 22 22 23 25 26 27 28 29 29 29 27 26 25 25 25 24 23 23 23 23 22 21 20 19 19 18 18 17 16 17 17 15 15 14 12 9 6 5 7 7 6 4
16 17 17 18 20 21 22 23 24 24 24 23 23 24 25 26 28 30 30 30 29 28 27 27 26 26 24 24 24 24 23 23 22 21 20 19 19 18 17 17 16 15 17 17 12 5 3 3 2 3 2 4
15 16 16 17 19 20 20 22 23 24 26 26 26 27 28 29 30 31 31 31 30 29 29 28 28 27 25 25 24 24 25 24 23 22 21 20 20 20 19 17 16 15 15 16 16 10 5 2 1 3 3 6
16 15 16 16 17 19 19 19 20 22 24 25 26 28 29 31 32 32 33 33 32 31 30 30 29 28 27 26 25 25 25 25 24 23 22 21 21 21 21 19 17 17 16 15 17 18 14 10 7 5 4 3
17 17 17 16 17 19 20 21 22 23 24 25 26 27 28 29 30 32 33 33 33 32 31 30 29 29 28 28 27 26 25 26 26 25 23 22 22 22 21 20 19 19 18 16 16 19 20 19 16 12 7 3
Wind_Direction
341 348 356 358 0 6 8 11 12 10 8 2 356 351 347 347 349 349 343 336 334 334 331 328 331 332 331 334 335 335 335 337 339 341 342 341 340 339 336 335 334 334 333 333 333 338 343 336 329 329 329 328
328 331 343 347 350 358 0 5 8 7 7 5 2 357 351 349 351 350 341 335 330 331 329 324 325 327 327 327 328 329 329 329 332 334 336 337 335 333 330 329 329 330 334 337 332 330 334 333 331 331 326 324
301 309 327 337 341 350 353 358 1 3 4 3 1 358 351 347 350 350 342 334 326 327 326 320 320 323 323 321 322 324 323 322 325 327 330 332 330 329 327 326 328 329 331 336 336 331 330 330 330 330 327 324
275 293 318 330 337 344 348 352 354 358 360 358 356 354 349 346 352 355 339 324 322 324 319 319 322 320 317 315 315 318 318 314 318 322 321 324 323 322 324 326 332 335 331 332 335 334 332 329 328 327 329 328
272 289 314 327 334 337 339 344 345 351 353 349 348 347 344 345 354 348 325 323 325 321 315 323 329 320 311 309 309 311 310 306 314 318 310 313 315 316 321 321 329 334 329 331 334 334 334 331 329 328 328 329
271 290 313 318 320 322 326 334 335 341 342 338 338 337 339 344 348 330 325 334 330 318 318 326 328 316 310 305 303 303 302 303 312 312 304 307 308 310 318 312 319 327 324 329 331 327 331 333 333 332 328 327
268 287 298 291 300 309 315 322 319 325 327 327 327 326 334 339 336 329 334 338 324 316 317 318 315 313 310 303 300 299 297 304 311 306 299 307 305 304 312 308 312 318 318 324 323 320 326 331 334 334 330 327
261 274 271 269 287 293 297 304 304 311 313 315 316 316 326 329 331 334 336 331 318 312 310 310 314 315 311 303 301 297 299 308 311 300 296 305 303 300 304 305 307 310 313 317 316 315 320 323 328 332 331 328
261 266 260 265 281 281 282 288 293 300 300 305 305 303 314 323 330 332 327 324 315 308 305 307 313 314 308 303 297 296 302 307 304 294 296 302 299 298 300 302 304 306 311 313 312 313 317 318 321 326 329 328
260 258 258 268 276 271 268 277 285 286 288 295 288 291 308 319 323 319 319 320 313 307 301 303 308 305 299 296 292 295 300 298 293 293 297 298 296 297 298 301 304 305 310 310 308 312 315 315 316 319 323 326
256 257 262 269 268 262 263 272 278 277 284 283 274 291 306 308 307 309 313 314 314 310 299 298 299 293 292 292 290 294 294 290 290 293 296 295 296 299 299 301 302 304 309 307 304 307 309 309 310 312 317 322
258 260 263 264 260 260 266 272 273 275 281 273 275 293 298 292 297 301 305 310 313 308 296 290 288 288 291 288 285 285 282 283 289 291 292 293 293 297 299 299 299 302 305 303 301 303 303 304 306 308 312 317
259 260 260 259 258 261 266 269 269 275 274 269 279 289 286 287 291 291 299 308 310 304 295 287 285 287 288 286 283 280 277 281 285 285 287 290 291 295 298 297 297 299 300 300 300 300 300 302 302 305 309 312
257 258 257 256 258 261 263 264 267 271 268 269 279 281 279 282 281 286 297 306 307 301 295 288 284 285 285 282 278 274 274 278 280 281 283 282 285 291 293 294 296 297 299 300 299 299 299 299 299 302 306 307
253 256 257 257 258 260 261 261 265 265 265 269 274 274 275 274 276 284 293 298 299 297 295 288 282 280 276 272 269 267 269 272 274 275 274 276 285 293 294 294 295 297 298 297 296 298 297 297 298 300 302 303
254 255 256 257 257 259 260 259 260 260 262 265 267 268 268 269 274 279 283 288 292 294 292 284 278 274 271 268 267 265 267 267 266 269 273 282 292 296 293 292 293 294 295 295 295 297 295 296 296 297 299 299
257 258 258 258 258 259 259 257 258 258 260 262 264 263 263 267 270 272 275 280 287 289 285 280 276 272 269 267 265 265 264 264 267 272 278 286 288 287 288 290 291 291 291 292 293 293 293 295 296 296 295 293
257 259 261 261 259 257 257 256 258 259 260 262 262 260 261 265 267 269 271 275 281 283 279 276 272 267 266 265 263 263 262 264 266 270 275 278 280 282 285 286 287 289 290 292 292 291 292 294 295 294 291 291
261 261 263 264 262 259 257 257 258 260 261 262 261 260 261 263 266 268 269 272 276 275 273 271 267 264 264 263 260 259 259 260 260 264 270 274 278 280 282 283 284 286 288 291 291 291 292 293 292 291 289 291
267 265 263 264 265 263 259 258 259 260 260 261 260 260 260 261 263 265 267 269 270 270 270 267 264 262 261 257 252 253 255 256 259 263 268 269 272 277 280 282 283 285 287 288 289 290 291 290 289 288 288 291
272 269 266 263 264 264 262 259 259 259 259 259 258 258 259 258 259 261 263 265 264 266 268 264 262 260 258 253 247 250 252 254 258 261 264 266 267 270 276 279 281 284 286 287 288 289 288 288 287 286 288 291
274 272 269 266 263 263 263 261 260 259 259 259 258 258 258 257 258 258 258 260 261 264 266 262 260 258 255 249 246 247 249 251 256 258 259 262 262 265 270 275 277 280 283 286 287 287 286 286 285 285 287 288
276 273 270 267 264 262 262 262 261 260 260 259 259 258 257 256 256 255 254 256 257 261 262 259 257 256 251 247 245 244 245 248 251 253 255 257 261 264 266 268 271 276 281 283 284 285 285 284 284 285 285 285
277 274 270 267 265 263 263 264 263 262 262 261 259 258 257 256 255 253 252 253 254 257 257 255 253 252 249 245 241 239 239 242 244 247 250 253 258 262 264 265 267 272 276 278 281 282 283 286 286 283 282 280
283 276 272 269 266 268 270 270 267 265 265 264 262 260 257 255 254 251 250 251 253 254 253 252 250 248 245 241 238 238 238 239 241 242 245 250 253 258 263 265 265 266 269 272 279 284 287 289 286 283 280 273
295 285 279 276 274 276 278 277 275 271 270 268 265 261 258 256 253 250 250 251 251 251 251 249 248 245 242 240 238 239 239 237 237 238 240 245 249 252 257 262 263 261 261 260 268 288 296 294 292 292 286 266
305 299 289 283 283 285 285 283 282 281 280 276 268 262 258 255 253 251 251 251 251 250 249 248 247 245 242 240 239 238 237 235 233 234 235 238 244 249 253 258 259 254 250 250 262 287 287 285 306 308 299 261
312 309 298 288 288 291 288 284 283 282 281 278 272 266 260 256 254 253 252 252 252 250 250 249 246 244 241 239 237 236 235 234 232 231 232 234 237 241 245 251 255 253 248 241 239 260 281 284 309 283 323 350
319 316 308 297 293 294 290 284 282 280 279 277 273 268 263 260 256 253 253 253 253 252 252 249 246 243 240 238 236 234 234 235 233 230 230 230 230 231 235 242 251 254 246 234 226 225 243 287 264 248 345 349
325 319 317 308 299 296 291 285 282 279 280 281 279 274 268 262 258 255 253 252 252 252 251 248 245 243 240 238 236 234 233 234 234 231 227 226 226 228 230 236 247 251 246 239 236 233 232 242 248 267 334 355
324 316 314 310 301 295 289 283 282 283 284 285 284 283 275 266 259 255 253 251 250 249 248 245 243 242 241 240 238 235 233 233 233 232 228 225 225 227 228 231 238 245 246 244 244 238 234 239 246 251 260 257